Time,TemperatureF,DewpointF,PressureIn,WindDirection,WindDirectionDegrees,WindSpeedMPH,WindSpeedGustMPH,Humidity,HourlyPrecipIn,Conditions,Clouds,dailyrainin,SoftwareType,DateUTC
2013-05-23 00:01:00,74.2,63.8,29.92,WSW,248,0.0,0.0,70,0.00,,,0.00,Wunderground v.1.15,2013-05-23 04:01:00,
2013-05-23 00:02:00,74.2,64.2,29.92,South,177,0.0,0.0,71,0.00,,,0.00,Wunderground v.1.15,2013-05-23 04:02:00,
2013-05-23 00:03:00,74.2,64.2,29.92,South,179,0.0,0.0,71,0.00,,,0.00,Wunderground v.1.15,2013-05-23 04:03:00,
2013-05-23 00:04:00,74.1,64.5,29.91,South,177,0.0,0.0,72,0.00,,,0.00,Wunderground v.1.15,2013-05-23 04:04:00,
2013-05-23 00:06:00,74.0,64.4,29.91,ESE,114,1.0,1.0,72,0.00,,,0.00,Wunderground v.1.15,2013-05-23 04:06:00,
2013-05-23 00:12:00,73.6,64.4,29.91,SE,141,0.0,0.0,73,0.00,,,0.00,Wunderground v.1.15,2013-05-23 04:12:00,
2013-05-23 00:17:00,73.2,64.4,29.91,SE,141,0.0,0.0,74,0.00,,,0.00,Wunderground v.1.15,2013-05-23 04:17:00,
2013-05-23 00:22:00,72.8,64.0,29.91,ESE,119,0.0,0.0,74,0.00,,,0.00,Wunderground v.1.15,2013-05-23 04:22:00,
2013-05-23 00:28:00,72.8,64.4,29.91,ESE,103,1.0,1.0,75,0.00,,,0.00,Wunderground v.1.15,2013-05-23 04:28:00,
2013-05-23 00:36:00,72.6,65.3,29.91,SE,136,0.0,1.0,78,0.00,,,0.00,Wunderground v.1.15,2013-05-23 04:36:00,
2013-05-23 00:42:00,72.6,65.7,29.90,WSW,245,0.0,2.0,79,0.00,,,0.00,Wunderground v.1.15,2013-05-23 04:42:00,
2013-05-23 00:49:00,72.8,66.3,29.91,West,266,0.0,2.0,80,0.00,,,0.00,Wunderground v.1.15,2013-05-23 04:49:00,
2013-05-23 00:55:00,73.3,67.1,29.91,SW,229,3.0,3.0,81,0.00,,,0.00,Wunderground v.1.15,2013-05-23 04:55:00,
2013-05-23 01:00:00,73.4,67.2,29.91,WSW,257,2.0,2.0,81,0.00,,,0.00,Wunderground v.1.15,2013-05-23 05:00:00,
2013-05-23 01:06:00,73.4,67.2,29.91,SW,232,4.0,5.0,81,0.00,,,0.00,Wunderground v.1.15,2013-05-23 05:06:00,
2013-05-23 01:12:00,73.4,67.2,29.91,SW,236,2.0,2.0,81,0.00,,,0.00,Wunderground v.1.15,2013-05-23 05:12:00,
2013-05-23 01:17:00,73.2,67.0,29.91,WNW,288,1.0,2.0,81,0.00,,,0.00,Wunderground v.1.15,2013-05-23 05:17:00,
2013-05-23 01:23:00,73.1,66.9,29.91,WSW,257,2.0,4.0,81,0.00,,,0.00,Wunderground v.1.15,2013-05-23 05:23:00,
2013-05-23 01:28:00,73.0,66.8,29.91,SW,229,2.0,4.0,81,0.00,,,0.00,Wunderground v.1.15,2013-05-23 05:28:00,
2013-05-23 01:33:00,72.9,66.7,29.90,SW,235,4.0,4.0,81,0.00,,,0.00,Wunderground v.1.15,2013-05-23 05:33:00,
2013-05-23 01:39:00,72.8,66.6,29.90,SW,236,6.0,6.0,81,0.00,,,0.00,Wunderground v.1.15,2013-05-23 05:39:00,
2013-05-23 01:44:00,72.7,66.5,29.90,SSW,200,3.0,5.0,81,0.00,,,0.00,Wunderground v.1.15,2013-05-23 05:44:00,
2013-05-23 01:49:00,72.6,66.4,29.90,SW,231,3.0,5.0,81,0.00,,,0.00,Wunderground v.1.15,2013-05-23 05:49:00,
2013-05-23 01:54:00,72.5,66.7,29.90,West,267,2.0,5.0,82,0.00,,,0.00,Wunderground v.1.15,2013-05-23 05:54:00,
2013-05-23 02:00:00,72.5,66.7,29.89,SSW,197,6.0,6.0,82,0.00,,,0.00,Wunderground v.1.15,2013-05-23 06:00:00,
2013-05-23 02:05:00,72.4,66.6,29.89,South,171,3.0,6.0,82,0.00,,,0.00,Wunderground v.1.15,2013-05-23 06:05:00,
2013-05-23 02:10:00,72.4,66.2,29.89,WSW,239,1.0,3.0,81,0.00,,,0.00,Wunderground v.1.15,2013-05-23 06:10:00,
2013-05-23 02:15:00,72.4,66.2,29.89,SW,222,2.0,4.0,81,0.00,,,0.00,Wunderground v.1.15,2013-05-23 06:15:00,
2013-05-23 02:20:00,72.3,66.1,29.89,West,278,2.0,4.0,81,0.00,,,0.00,Wunderground v.1.15,2013-05-23 06:20:00,
2013-05-23 02:25:00,72.2,66.0,29.89,WSW,252,4.0,5.0,81,0.00,,,0.00,Wunderground v.1.15,2013-05-23 06:25:00,
2013-05-23 02:30:00,72.2,66.0,29.89,SW,224,6.0,8.0,81,0.00,,,0.00,Wunderground v.1.15,2013-05-23 06:30:00,
2013-05-23 02:35:00,72.2,66.4,29.89,West,267,1.0,8.0,82,0.00,,,0.00,Wunderground v.1.15,2013-05-23 06:35:00,
2013-05-23 02:40:00,72.1,66.3,29.89,WSW,246,4.0,5.0,82,0.00,,,0.00,Wunderground v.1.15,2013-05-23 06:40:00,
2013-05-23 02:45:00,72.0,66.2,29.89,NW,324,1.0,5.0,82,0.00,,,0.00,Wunderground v.1.15,2013-05-23 06:45:00,
2013-05-23 02:50:00,71.9,66.1,29.89,West,271,5.0,5.0,82,0.00,,,0.00,Wunderground v.1.15,2013-05-23 06:50:00,
2013-05-23 02:55:00,71.9,66.1,29.89,West,269,2.0,7.0,82,0.00,,,0.00,Wunderground v.1.15,2013-05-23 06:55:00,
2013-05-23 03:00:00,71.8,65.7,29.89,West,276,1.0,3.0,81,0.00,,,0.00,Wunderground v.1.15,2013-05-23 07:00:00,
2013-05-23 03:05:00,71.7,65.6,29.89,WNW,302,2.0,4.0,81,0.00,,,0.00,Wunderground v.1.15,2013-05-23 07:05:00,
2013-05-23 03:10:00,71.6,65.5,29.89,WSW,252,0.0,2.0,81,0.00,,,0.00,Wunderground v.1.15,2013-05-23 07:10:00,
2013-05-23 03:15:00,71.5,65.7,29.89,SW,217,1.0,4.0,82,0.00,,,0.00,Wunderground v.1.15,2013-05-23 07:15:00,
2013-05-23 03:20:00,71.4,65.6,29.89,WNW,294,0.0,1.0,82,0.00,,,0.00,Wunderground v.1.15,2013-05-23 07:20:00,
2013-05-23 03:25:00,71.3,65.5,29.89,NW,320,2.0,4.0,82,0.00,,,0.00,Wunderground v.1.15,2013-05-23 07:25:00,
2013-05-23 03:30:00,71.2,65.4,29.89,SW,218,0.0,2.0,82,0.00,,,0.00,Wunderground v.1.15,2013-05-23 07:30:00,
2013-05-23 03:35:00,71.2,65.4,29.90,WSW,243,1.0,3.0,82,0.00,,,0.00,Wunderground v.1.15,2013-05-23 07:35:00,
2013-05-23 03:40:00,71.1,65.7,29.90,SW,225,2.0,3.0,83,0.00,,,0.00,Wunderground v.1.15,2013-05-23 07:40:00,
2013-05-23 03:45:00,71.0,65.6,29.90,SSW,205,2.0,5.0,83,0.00,,,0.00,Wunderground v.1.15,2013-05-23 07:45:00,
2013-05-23 03:50:00,70.9,65.8,29.90,SE,145,6.0,6.0,84,0.00,,,0.00,Wunderground v.1.15,2013-05-23 07:50:00,
2013-05-23 03:55:00,70.9,65.8,29.90,West,263,2.0,6.0,84,0.00,,,0.00,Wunderground v.1.15,2013-05-23 07:55:00,
2013-05-23 04:00:00,70.8,65.7,29.90,SW,236,2.0,4.0,84,0.00,,,0.00,Wunderground v.1.15,2013-05-23 08:00:00,
2013-05-23 04:05:00,70.7,66.0,29.91,West,274,1.0,5.0,85,0.00,,,0.00,Wunderground v.1.15,2013-05-23 08:05:00,
2013-05-23 04:10:00,70.7,66.0,29.90,SW,221,4.0,4.0,85,0.00,,,0.00,Wunderground v.1.15,2013-05-23 08:10:00,
2013-05-23 04:15:00,70.7,66.0,29.91,West,264,2.0,6.0,85,0.00,,,0.00,Wunderground v.1.15,2013-05-23 08:15:00,
2013-05-23 04:20:00,70.5,66.1,29.91,West,262,1.0,2.0,86,0.00,,,0.00,Wunderground v.1.15,2013-05-23 08:20:00,
2013-05-23 04:25:00,70.3,66.2,29.90,West,271,1.0,4.0,87,0.00,,,0.00,Wunderground v.1.15,2013-05-23 08:25:00,
2013-05-23 04:30:00,70.0,66.3,29.90,SW,236,2.0,3.0,88,0.00,,,0.00,Wunderground v.1.15,2013-05-23 08:30:00,
2013-05-23 04:35:00,69.8,66.4,29.90,NW,304,2.0,3.0,89,0.00,,,0.00,Wunderground v.1.15,2013-05-23 08:35:00,
2013-05-23 04:40:00,69.6,66.2,29.90,SW,231,1.0,2.0,89,0.00,,,0.00,Wunderground v.1.15,2013-05-23 08:40:00,
2013-05-23 04:45:00,69.5,66.4,29.90,SW,228,2.0,2.0,90,0.00,,,0.01,Wunderground v.1.15,2013-05-23 08:45:00,
2013-05-23 04:50:00,69.4,66.3,29.90,WSW,251,0.0,1.0,90,0.00,,,0.01,Wunderground v.1.15,2013-05-23 08:50:00,
2013-05-23 04:55:00,69.4,66.3,29.90,SW,222,0.0,2.0,90,0.00,,,0.01,Wunderground v.1.15,2013-05-23 08:55:00,
2013-05-23 05:01:00,69.3,66.2,29.90,SW,236,0.0,1.0,90,0.00,,,0.01,Wunderground v.1.15,2013-05-23 09:01:00,
2013-05-23 05:06:00,69.3,66.6,29.89,SSW,195,1.0,2.0,91,0.00,,,0.01,Wunderground v.1.15,2013-05-23 09:06:00,
2013-05-23 05:11:00,69.3,66.6,29.89,SSW,203,1.0,3.0,91,0.00,,,0.01,Wunderground v.1.15,2013-05-23 09:11:00,
2013-05-23 05:16:00,69.3,66.6,29.89,South,191,1.0,4.0,91,0.00,,,0.01,Wunderground v.1.15,2013-05-23 09:16:00,
2013-05-23 05:21:00,69.3,66.6,29.89,SW,226,1.0,3.0,91,0.00,,,0.01,Wunderground v.1.15,2013-05-23 09:21:00,
2013-05-23 05:26:00,69.3,66.6,29.90,West,271,0.0,3.0,91,0.00,,,0.01,Wunderground v.1.15,2013-05-23 09:26:00,
2013-05-23 05:31:00,69.3,66.6,29.89,SW,228,2.0,2.0,91,0.00,,,0.01,Wunderground v.1.15,2013-05-23 09:31:00,
2013-05-23 05:36:00,69.3,66.6,29.89,WNW,287,1.0,3.0,91,0.00,,,0.01,Wunderground v.1.15,2013-05-23 09:36:00,
2013-05-23 05:41:00,69.3,66.6,29.89,SW,215,1.0,2.0,91,0.00,,,0.01,Wunderground v.1.15,2013-05-23 09:41:00,
2013-05-23 05:46:00,69.3,66.6,29.89,West,274,2.0,5.0,91,0.00,,,0.01,Wunderground v.1.15,2013-05-23 09:46:00,
2013-05-23 05:51:00,69.3,66.6,29.89,WSW,240,2.0,4.0,91,0.00,,,0.01,Wunderground v.1.15,2013-05-23 09:51:00,
2013-05-23 05:56:00,69.3,66.6,29.89,SSW,195,2.0,6.0,91,0.00,,,0.01,Wunderground v.1.15,2013-05-23 09:56:00,
2013-05-23 06:01:00,69.3,66.6,29.90,WSW,258,1.0,2.0,91,0.00,,,0.01,Wunderground v.1.15,2013-05-23 10:01:00,
2013-05-23 06:06:00,69.3,66.6,29.90,SW,224,1.0,4.0,91,0.00,,,0.01,Wunderground v.1.15,2013-05-23 10:06:00,
2013-05-23 06:11:00,69.4,66.7,29.90,SW,225,1.0,1.0,91,0.00,,,0.01,Wunderground v.1.15,2013-05-23 10:11:00,
2013-05-23 06:16:00,69.4,66.7,29.90,SSW,204,2.0,4.0,91,0.00,,,0.01,Wunderground v.1.15,2013-05-23 10:16:00,
2013-05-23 06:21:00,69.4,66.7,29.90,West,271,0.0,1.0,91,0.00,,,0.01,Wunderground v.1.15,2013-05-23 10:21:00,
2013-05-23 06:26:00,69.4,66.7,29.90,West,261,1.0,2.0,91,0.00,,,0.01,Wunderground v.1.15,2013-05-23 10:26:00,
2013-05-23 06:31:00,69.5,66.8,29.90,WSW,238,3.0,5.0,91,0.00,,,0.01,Wunderground v.1.15,2013-05-23 10:31:00,
2013-05-23 06:36:00,69.5,66.8,29.90,SSW,204,3.0,5.0,91,0.00,,,0.01,Wunderground v.1.15,2013-05-23 10:36:00,
2013-05-23 06:41:00,69.5,66.8,29.91,WSW,253,2.0,3.0,91,0.00,,,0.01,Wunderground v.1.15,2013-05-23 10:41:00,
2013-05-23 06:46:00,69.6,66.5,29.91,WSW,246,2.0,7.0,90,0.00,,,0.01,Wunderground v.1.15,2013-05-23 10:46:00,
2013-05-23 06:51:00,69.7,66.6,29.90,WSW,238,2.0,3.0,90,0.00,,,0.01,Wunderground v.1.15,2013-05-23 10:51:00,
2013-05-23 06:56:00,69.8,66.7,29.91,SW,229,0.0,4.0,90,0.00,,,0.01,Wunderground v.1.15,2013-05-23 10:56:00,
2013-05-23 07:01:00,69.9,66.8,29.91,SSW,210,5.0,6.0,90,0.00,,,0.01,Wunderground v.1.15,2013-05-23 11:01:00,
2013-05-23 07:06:00,70.1,66.7,29.90,SW,225,5.0,10.0,89,0.00,,,0.01,Wunderground v.1.15,2013-05-23 11:06:00,
2013-05-23 07:11:00,70.2,66.8,29.91,West,271,1.0,3.0,89,0.00,,,0.01,Wunderground v.1.15,2013-05-23 11:11:00,
2013-05-23 07:16:00,70.3,66.9,29.91,WSW,242,2.0,8.0,89,0.00,,,0.01,Wunderground v.1.15,2013-05-23 11:16:00,
2013-05-23 07:21:00,70.4,66.7,29.91,WSW,256,2.0,5.0,88,0.00,,,0.01,Wunderground v.1.15,2013-05-23 11:21:00,
2013-05-23 07:26:00,70.5,66.8,29.91,SSW,210,1.0,5.0,88,0.00,,,0.01,Wunderground v.1.15,2013-05-23 11:26:00,
2013-05-23 07:31:00,70.6,66.9,29.91,South,184,2.0,2.0,88,0.00,,,0.01,Wunderground v.1.15,2013-05-23 11:31:00,
2013-05-23 07:36:00,70.6,66.9,29.91,West,278,2.0,6.0,88,0.00,,,0.01,Wunderground v.1.15,2013-05-23 11:36:00,
2013-05-23 07:41:00,70.6,66.9,29.91,SW,222,2.0,2.0,88,0.00,,,0.01,Wunderground v.1.15,2013-05-23 11:41:00,
2013-05-23 07:46:00,70.6,66.5,29.91,SW,229,0.0,3.0,87,0.00,,,0.01,Wunderground v.1.15,2013-05-23 11:46:00,
2013-05-23 07:51:00,70.7,66.6,29.91,SW,229,2.0,3.0,87,0.00,,,0.01,Wunderground v.1.15,2013-05-23 11:51:00,
2013-05-23 07:56:00,70.9,66.8,29.91,WSW,243,2.0,6.0,87,0.00,,,0.01,Wunderground v.1.15,2013-05-23 11:56:00,
2013-05-23 08:01:00,71.1,66.7,29.91,WSW,246,1.0,2.0,86,0.00,,,0.01,Wunderground v.1.15,2013-05-23 12:01:00,
2013-05-23 08:06:00,71.4,67.0,29.91,South,176,7.0,7.0,86,0.00,,,0.01,Wunderground v.1.15,2013-05-23 12:06:00,
2013-05-23 08:12:00,71.4,66.7,29.91,NNE,25,2.0,3.0,85,0.00,,,0.01,Wunderground v.1.15,2013-05-23 12:12:00,
2013-05-23 08:17:00,71.5,66.4,29.91,SW,219,4.0,8.0,84,0.00,,,0.01,Wunderground v.1.15,2013-05-23 12:17:00,
2013-05-23 08:22:00,71.4,66.7,29.91,West,263,5.0,6.0,85,0.00,,,0.01,Wunderground v.1.15,2013-05-23 12:22:00,
2013-05-23 08:27:00,71.5,66.8,29.91,West,274,1.0,6.0,85,0.00,,,0.01,Wunderground v.1.15,2013-05-23 12:27:00,
2013-05-23 08:32:00,71.7,66.9,29.91,WSW,250,0.0,2.0,85,0.00,,,0.01,Wunderground v.1.15,2013-05-23 12:32:00,
2013-05-23 08:37:00,71.8,66.4,29.91,WSW,242,4.0,7.0,83,0.00,,,0.01,Wunderground v.1.15,2013-05-23 12:37:00,
2013-05-23 08:42:00,71.8,66.7,29.91,West,269,1.0,3.0,84,0.00,,,0.01,Wunderground v.1.15,2013-05-23 12:42:00,
2013-05-23 08:47:00,71.8,66.7,29.91,SSE,159,3.0,5.0,84,0.00,,,0.01,Wunderground v.1.15,2013-05-23 12:47:00,
2013-05-23 08:52:00,72.0,66.6,29.91,WSW,238,2.0,3.0,83,0.00,,,0.01,Wunderground v.1.15,2013-05-23 12:52:00,
2013-05-23 08:57:00,72.1,66.3,29.91,West,267,3.0,4.0,82,0.00,,,0.01,Wunderground v.1.15,2013-05-23 12:57:00,
2013-05-23 09:02:00,72.0,66.6,29.92,West,264,1.0,3.0,83,0.00,,,0.01,Wunderground v.1.15,2013-05-23 13:02:00,
2013-05-23 09:07:00,72.1,66.6,29.91,SW,229,1.0,4.0,83,0.00,,,0.01,Wunderground v.1.15,2013-05-23 13:07:00,
2013-05-23 09:12:00,72.3,66.8,29.91,SW,236,2.0,3.0,83,0.00,,,0.01,Wunderground v.1.15,2013-05-23 13:12:00,
2013-05-23 09:17:00,72.4,66.6,29.91,West,264,1.0,3.0,82,0.00,,,0.01,Wunderground v.1.15,2013-05-23 13:17:00,
2013-05-23 09:22:00,72.7,66.9,29.91,WNW,288,1.0,4.0,82,0.00,,,0.01,Wunderground v.1.15,2013-05-23 13:22:00,
2013-05-23 09:27:00,73.3,66.8,29.91,NW,315,1.0,4.0,80,0.00,,,0.01,Wunderground v.1.15,2013-05-23 13:27:00,
2013-05-23 09:32:00,73.7,66.4,29.91,ESE,122,1.0,3.0,78,0.00,,,0.01,Wunderground v.1.15,2013-05-23 13:32:00,
2013-05-23 09:37:00,73.7,66.4,29.91,WSW,238,2.0,3.0,78,0.00,,,0.01,Wunderground v.1.15,2013-05-23 13:37:00,
2013-05-23 09:41:00,74.1,66.8,29.91,WSW,243,1.0,5.0,78,0.00,,,0.01,Wunderground v.1.15,2013-05-23 13:41:00,
2013-05-23 09:46:00,74.9,66.8,29.91,West,269,3.0,7.0,76,0.00,,,0.01,Wunderground v.1.15,2013-05-23 13:46:00,
2013-05-23 09:51:00,75.0,66.9,29.91,WSW,246,2.0,3.0,76,0.00,,,0.01,Wunderground v.1.15,2013-05-23 13:51:00,
2013-05-23 09:56:00,74.9,66.4,29.91,NW,314,1.0,6.0,75,0.00,,,0.01,Wunderground v.1.15,2013-05-23 13:56:00,
2013-05-23 10:01:00,74.8,66.3,29.91,West,259,1.0,2.0,75,0.00,,,0.01,Wunderground v.1.15,2013-05-23 14:01:00,
2013-05-23 10:07:00,75.1,67.0,29.91,SW,233,2.0,9.0,76,0.00,,,0.01,Wunderground v.1.15,2013-05-23 14:07:00,
2013-05-23 10:12:00,75.5,67.0,29.91,SSW,212,2.0,5.0,75,0.00,,,0.01,Wunderground v.1.15,2013-05-23 14:12:00,
2013-05-23 10:17:00,75.7,66.8,29.91,SW,229,1.0,7.0,74,0.00,,,0.01,Wunderground v.1.15,2013-05-23 14:17:00,
2013-05-23 10:22:00,76.2,66.9,29.91,SSW,211,3.0,7.0,73,0.00,,,0.01,Wunderground v.1.15,2013-05-23 14:22:00,
2013-05-23 10:27:00,76.1,66.8,29.92,SW,236,3.0,7.0,73,0.00,,,0.01,Wunderground v.1.15,2013-05-23 14:27:00,
2013-05-23 10:32:00,75.9,65.8,29.91,WSW,252,5.0,5.0,71,0.00,,,0.01,Wunderground v.1.15,2013-05-23 14:32:00,
2013-05-23 10:37:00,76.2,66.5,29.91,WSW,242,2.0,7.0,72,0.00,,,0.01,Wunderground v.1.15,2013-05-23 14:37:00,
2013-05-23 10:42:00,76.4,66.7,29.91,WSW,257,6.0,6.0,72,0.00,,,0.01,Wunderground v.1.15,2013-05-23 14:42:00,
2013-05-23 10:47:00,76.2,65.7,29.92,SW,231,2.0,8.0,70,0.00,,,0.01,Wunderground v.1.15,2013-05-23 14:47:00,
2013-05-23 10:52:00,76.3,65.8,29.91,West,264,3.0,3.0,70,0.00,,,0.01,Wunderground v.1.15,2013-05-23 14:52:00,
2013-05-23 10:57:00,76.9,66.8,29.91,WSW,250,2.0,6.0,71,0.00,,,0.01,Wunderground v.1.15,2013-05-23 14:57:00,
2013-05-23 11:02:00,77.4,66.0,29.91,NW,304,3.0,7.0,68,0.00,,,0.01,Wunderground v.1.15,2013-05-23 15:02:00,
2013-05-23 11:07:00,77.6,66.6,29.91,West,281,1.0,10.0,69,0.00,,,0.01,Wunderground v.1.15,2013-05-23 15:07:00,
2013-05-23 11:12:00,78.3,66.9,29.91,West,274,3.0,5.0,68,0.00,,,0.01,Wunderground v.1.15,2013-05-23 15:12:00,
2013-05-23 11:17:00,78.5,66.6,29.91,WNW,290,3.0,8.0,67,0.00,,,0.01,Wunderground v.1.15,2013-05-23 15:17:00,
2013-05-23 11:22:00,78.3,66.0,29.91,SW,215,6.0,7.0,66,0.00,,,0.01,Wunderground v.1.15,2013-05-23 15:22:00,
2013-05-23 11:27:00,78.6,66.7,29.91,SSW,203,8.0,8.0,67,0.00,,,0.01,Wunderground v.1.15,2013-05-23 15:27:00,
2013-05-23 11:32:00,78.5,65.8,29.91,WSW,249,2.0,6.0,65,0.00,,,0.01,Wunderground v.1.15,2013-05-23 15:32:00,
2013-05-23 11:37:00,78.3,66.0,29.91,WSW,238,3.0,6.0,66,0.00,,,0.01,Wunderground v.1.15,2013-05-23 15:37:00,
2013-05-23 11:42:00,77.9,65.6,29.91,WSW,256,3.0,7.0,66,0.00,,,0.01,Wunderground v.1.15,2013-05-23 15:42:00,
2013-05-23 11:47:00,77.5,65.2,29.91,SW,232,2.0,7.0,66,0.00,,,0.01,Wunderground v.1.15,2013-05-23 15:47:00,
2013-05-23 11:52:00,77.3,65.9,29.91,SW,234,9.0,9.0,68,0.00,,,0.01,Wunderground v.1.15,2013-05-23 15:52:00,
2013-05-23 11:57:00,76.8,65.4,29.91,South,171,3.0,9.0,68,0.00,,,0.01,Wunderground v.1.15,2013-05-23 15:57:00,
2013-05-23 12:02:00,76.6,65.7,29.91,West,269,1.0,6.0,69,0.00,,,0.01,Wunderground v.1.15,2013-05-23 16:02:00,
2013-05-23 12:07:00,76.5,65.6,29.91,West,277,2.0,6.0,69,0.00,,,0.01,Wunderground v.1.15,2013-05-23 16:07:00,
2013-05-23 12:12:00,76.4,65.9,29.91,SSW,194,4.0,5.0,70,0.00,,,0.01,Wunderground v.1.15,2013-05-23 16:12:00,
2013-05-23 12:17:00,76.7,65.8,29.90,SSW,201,0.0,7.0,69,0.00,,,0.01,Wunderground v.1.15,2013-05-23 16:17:00,
2013-05-23 12:22:00,77.5,66.1,29.90,SSE,165,2.0,4.0,68,0.00,,,0.01,Wunderground v.1.15,2013-05-23 16:22:00,
2013-05-23 12:27:00,78.7,66.4,29.90,WSW,253,1.0,7.0,66,0.00,,,0.01,Wunderground v.1.15,2013-05-23 16:27:00,
2013-05-23 12:32:00,79.9,67.1,29.89,SSE,162,1.0,4.0,65,0.00,,,0.01,Wunderground v.1.15,2013-05-23 16:32:00,
2013-05-23 12:37:00,80.7,67.4,29.89,South,181,5.0,6.0,64,0.00,,,0.01,Wunderground v.1.15,2013-05-23 16:37:00,
2013-05-23 12:42:00,80.8,67.0,29.89,WSW,252,4.0,5.0,63,0.00,,,0.01,Wunderground v.1.15,2013-05-23 16:42:00,
2013-05-23 12:47:00,80.9,67.1,29.89,SW,229,3.0,5.0,63,0.00,,,0.01,Wunderground v.1.15,2013-05-23 16:47:00,
2013-05-23 12:52:00,80.9,67.6,29.89,SW,236,4.0,6.0,64,0.00,,,0.01,Wunderground v.1.15,2013-05-23 16:52:00,
2013-05-23 12:58:00,80.7,66.5,29.88,West,260,1.0,9.0,62,0.00,,,0.01,Wunderground v.1.15,2013-05-23 16:58:00,
2013-05-23 13:03:00,81.4,67.1,29.88,WSW,248,0.0,3.0,62,0.00,,,0.01,Wunderground v.1.15,2013-05-23 17:03:00,
2013-05-23 13:08:00,81.6,66.4,29.88,South,188,4.0,5.0,60,0.00,,,0.01,Wunderground v.1.15,2013-05-23 17:08:00,
2013-05-23 13:13:00,80.8,66.1,29.88,SSW,205,6.0,7.0,61,0.00,,,0.01,Wunderground v.1.15,2013-05-23 17:13:00,
2013-05-23 13:18:00,80.1,65.9,29.88,SSW,203,4.0,10.0,62,0.00,,,0.01,Wunderground v.1.15,2013-05-23 17:18:00,
2013-05-23 13:23:00,79.9,66.2,29.88,South,190,3.0,5.0,63,0.00,,,0.01,Wunderground v.1.15,2013-05-23 17:23:00,
2013-05-23 13:28:00,79.7,65.5,29.87,WSW,240,3.0,10.0,62,0.00,,,0.01,Wunderground v.1.15,2013-05-23 17:28:00,
2013-05-23 13:33:00,79.4,65.7,29.88,West,264,2.0,5.0,63,0.00,,,0.01,Wunderground v.1.15,2013-05-23 17:33:00,
2013-05-23 13:38:00,79.2,66.4,29.88,South,170,1.0,5.0,65,0.00,,,0.01,Wunderground v.1.15,2013-05-23 17:38:00,
2013-05-23 13:43:00,79.4,66.2,29.87,SW,226,2.0,4.0,64,0.00,,,0.01,Wunderground v.1.15,2013-05-23 17:43:00,
2013-05-23 13:48:00,79.7,66.0,29.87,SSW,212,1.0,5.0,63,0.00,,,0.01,Wunderground v.1.15,2013-05-23 17:48:00,
2013-05-23 13:53:00,80.1,66.4,29.87,WSW,238,1.0,3.0,63,0.00,,,0.01,Wunderground v.1.15,2013-05-23 17:53:00,
2013-05-23 13:58:00,81.6,67.3,29.87,SW,224,2.0,7.0,62,0.00,,,0.01,Wunderground v.1.15,2013-05-23 17:58:00,
2013-05-23 14:03:00,83.0,67.2,29.86,NNE,16,1.0,3.0,59,0.00,,,0.01,Wunderground v.1.15,2013-05-23 18:03:00,
2013-05-23 14:08:00,83.5,67.2,29.86,WSW,246,3.0,5.0,58,0.00,,,0.01,Wunderground v.1.15,2013-05-23 18:08:00,
2013-05-23 14:13:00,83.7,68.3,29.85,SW,224,1.0,4.0,60,0.00,,,0.01,Wunderground v.1.15,2013-05-23 18:13:00,
2013-05-23 14:18:00,83.4,66.1,29.85,WSW,252,2.0,7.0,56,0.00,,,0.01,Wunderground v.1.15,2013-05-23 18:18:00,
2013-05-23 14:23:00,82.5,66.7,29.85,SW,228,2.0,5.0,59,0.00,,,0.01,Wunderground v.1.15,2013-05-23 18:23:00,
2013-05-23 14:28:00,82.1,66.8,29.85,SSW,201,1.0,7.0,60,0.00,,,0.01,Wunderground v.1.15,2013-05-23 18:28:00,
2013-05-23 14:33:00,81.7,66.9,29.85,WNW,294,0.0,3.0,61,0.00,,,0.01,Wunderground v.1.15,2013-05-23 18:33:00,
2013-05-23 14:38:00,81.4,67.1,29.84,NW,319,0.0,3.0,62,0.00,,,0.01,Wunderground v.1.15,2013-05-23 18:38:00,
2013-05-23 14:43:00,81.3,67.5,29.84,WSW,249,4.0,4.0,63,0.00,,,0.01,Wunderground v.1.15,2013-05-23 18:43:00,
2013-05-23 14:48:00,81.5,67.2,29.84,SSW,205,4.0,4.0,62,0.00,,,0.01,Wunderground v.1.15,2013-05-23 18:48:00,
2013-05-23 14:53:00,81.4,67.1,29.84,NW,314,1.0,7.0,62,0.00,,,0.01,Wunderground v.1.15,2013-05-23 18:53:00,
2013-05-23 14:58:00,81.4,66.7,29.83,SW,218,2.0,7.0,61,0.00,,,0.01,Wunderground v.1.15,2013-05-23 18:58:00,
2013-05-23 15:03:00,81.6,66.4,29.83,SW,228,4.0,8.0,60,0.00,,,0.01,Wunderground v.1.15,2013-05-23 19:03:00,
2013-05-23 15:08:00,82.4,67.1,29.82,SSE,162,3.0,9.0,60,0.00,,,0.01,Wunderground v.1.15,2013-05-23 19:08:00,
2013-05-23 15:13:00,83.3,67.0,29.82,SW,228,6.0,8.0,58,0.00,,,0.01,Wunderground v.1.15,2013-05-23 19:13:00,
2013-05-23 15:18:00,83.9,66.5,29.82,SSW,198,1.0,8.0,56,0.00,,,0.01,Wunderground v.1.15,2013-05-23 19:18:00,
2013-05-23 15:23:00,85.2,66.7,29.81,SW,218,3.0,3.0,54,0.00,,,0.01,Wunderground v.1.15,2013-05-23 19:23:00,
2013-05-23 15:28:00,85.6,66.5,29.81,East,94,3.0,7.0,53,0.00,,,0.01,Wunderground v.1.15,2013-05-23 19:28:00,
2013-05-23 15:33:00,84.2,64.7,29.81,West,259,2.0,7.0,52,0.00,,,0.01,Wunderground v.1.15,2013-05-23 19:33:00,
2013-05-23 15:38:00,83.4,66.1,29.81,NW,304,1.0,7.0,56,0.00,,,0.01,Wunderground v.1.15,2013-05-23 19:38:00,
2013-05-23 15:43:00,83.1,65.8,29.81,WSW,248,4.0,10.0,56,0.00,,,0.01,Wunderground v.1.15,2013-05-23 19:43:00,
2013-05-23 15:48:00,83.1,65.8,29.81,WSW,255,2.0,11.0,56,0.00,,,0.01,Wunderground v.1.15,2013-05-23 19:48:00,
2013-05-23 15:53:00,83.9,66.0,29.80,SSE,160,2.0,6.0,55,0.00,,,0.01,Wunderground v.1.15,2013-05-23 19:53:00,
2013-05-23 15:58:00,83.5,65.6,29.80,SE,143,3.0,9.0,55,0.00,,,0.01,Wunderground v.1.15,2013-05-23 19:58:00,
2013-05-23 16:03:00,82.9,66.1,29.80,SW,225,0.0,7.0,57,0.00,,,0.01,Wunderground v.1.15,2013-05-23 20:03:00,
2013-05-23 16:08:00,82.7,66.9,29.80,South,191,4.0,7.0,59,0.00,,,0.01,Wunderground v.1.15,2013-05-23 20:08:00,
2013-05-23 16:13:00,82.5,65.7,29.80,SW,228,1.0,9.0,57,0.00,,,0.01,Wunderground v.1.15,2013-05-23 20:13:00,
2013-05-23 16:18:00,82.7,66.9,29.79,South,188,3.0,9.0,59,0.00,,,0.01,Wunderground v.1.15,2013-05-23 20:18:00,
2013-05-23 16:23:00,82.4,66.1,29.80,WSW,243,1.0,5.0,58,0.00,,,0.01,Wunderground v.1.15,2013-05-23 20:23:00,
2013-05-23 16:28:00,81.7,66.0,29.80,SW,224,5.0,9.0,59,0.00,,,0.01,Wunderground v.1.15,2013-05-23 20:28:00,
2013-05-23 16:33:00,80.5,67.2,29.80,SW,225,11.0,12.0,64,0.00,,,0.01,Wunderground v.1.15,2013-05-23 20:33:00,
2013-05-23 16:38:00,79.1,68.1,29.80,WSW,252,6.0,12.0,69,0.00,,,0.01,Wunderground v.1.15,2013-05-23 20:38:00,
2013-05-23 16:43:00,77.4,68.9,29.80,SW,234,3.0,6.0,75,0.43,,,0.06,Wunderground v.1.15,2013-05-23 20:43:00,
2013-05-23 16:48:00,76.4,69.0,29.80,SSW,205,5.0,7.0,78,0.11,,,0.06,Wunderground v.1.15,2013-05-23 20:48:00,
2013-05-23 16:53:00,76.2,69.6,29.80,South,190,4.0,7.0,80,0.06,,,0.06,Wunderground v.1.15,2013-05-23 20:53:00,
2013-05-23 16:58:00,76.9,69.1,29.80,SSW,208,5.0,9.0,77,0.04,,,0.06,Wunderground v.1.15,2013-05-23 20:58:00,
2013-05-23 17:03:00,77.7,70.3,29.80,SE,131,4.0,4.0,78,0.00,,,0.06,Wunderground v.1.15,2013-05-23 21:03:00,
2013-05-23 17:08:00,78.2,70.4,29.80,South,170,2.0,9.0,77,0.00,,,0.06,Wunderground v.1.15,2013-05-23 21:08:00,
2013-05-23 17:13:00,78.2,69.6,29.79,SSW,200,1.0,8.0,75,0.00,,,0.06,Wunderground v.1.15,2013-05-23 21:13:00,
2013-05-23 17:19:00,77.7,68.0,29.79,South,181,6.0,10.0,72,0.00,,,0.06,Wunderground v.1.15,2013-05-23 21:19:00,
2013-05-23 17:24:00,77.0,68.1,29.79,SW,225,8.0,11.0,74,0.00,,,0.06,Wunderground v.1.15,2013-05-23 21:24:00,
2013-05-23 17:29:00,76.7,67.4,29.79,SW,232,8.0,14.0,73,0.00,,,0.06,Wunderground v.1.15,2013-05-23 21:29:00,
2013-05-23 17:34:00,76.7,67.4,29.79,SSE,160,3.0,9.0,73,0.00,,,0.06,Wunderground v.1.15,2013-05-23 21:34:00,
2013-05-23 17:39:00,76.8,67.5,29.79,WSW,243,4.0,9.0,73,0.00,,,0.06,Wunderground v.1.15,2013-05-23 21:39:00,
2013-05-23 17:44:00,76.9,67.6,29.79,WSW,246,2.0,8.0,73,0.00,,,0.06,Wunderground v.1.15,2013-05-23 21:44:00,
2013-05-23 17:49:00,77.0,68.1,29.78,WSW,242,3.0,8.0,74,0.00,,,0.06,Wunderground v.1.15,2013-05-23 21:49:00,
2013-05-23 17:54:00,77.1,68.2,29.78,WSW,249,8.0,9.0,74,0.00,,,0.06,Wunderground v.1.15,2013-05-23 21:54:00,
2013-05-23 17:59:00,77.2,68.7,29.78,WNW,284,1.0,9.0,75,0.00,,,0.06,Wunderground v.1.15,2013-05-23 21:59:00,
2013-05-23 18:04:00,77.4,68.9,29.77,SSW,212,2.0,7.0,75,0.00,,,0.06,Wunderground v.1.15,2013-05-23 22:04:00,
2013-05-23 18:09:00,77.7,69.1,29.77,SSW,203,2.0,8.0,75,0.00,,,0.06,Wunderground v.1.15,2013-05-23 22:09:00,
2013-05-23 18:14:00,77.8,69.2,29.77,WSW,239,1.0,9.0,75,0.00,,,0.06,Wunderground v.1.15,2013-05-23 22:14:00,
2013-05-23 18:19:00,78.1,69.9,29.76,SSW,193,1.0,9.0,76,0.00,,,0.06,Wunderground v.1.15,2013-05-23 22:19:00,
2013-05-23 18:24:00,78.0,69.8,29.76,West,268,2.0,7.0,76,0.00,,,0.06,Wunderground v.1.15,2013-05-23 22:24:00,
2013-05-23 18:29:00,77.6,69.4,29.76,SSE,153,6.0,7.0,76,0.00,,,0.06,Wunderground v.1.15,2013-05-23 22:29:00,
2013-05-23 18:34:00,77.3,69.1,29.76,South,181,3.0,6.0,76,0.00,,,0.06,Wunderground v.1.15,2013-05-23 22:34:00,
2013-05-23 18:39:00,76.9,68.8,29.76,SW,225,1.0,8.0,76,0.00,,,0.06,Wunderground v.1.15,2013-05-23 22:39:00,
2013-05-23 18:44:00,76.6,68.8,29.77,WSW,240,11.0,11.0,77,0.00,,,0.06,Wunderground v.1.15,2013-05-23 22:44:00,
2013-05-23 18:49:00,76.3,68.6,29.77,WSW,246,2.0,11.0,77,0.00,,,0.06,Wunderground v.1.15,2013-05-23 22:49:00,
2013-05-23 18:54:00,76.1,68.4,29.77,WSW,250,2.0,7.0,77,0.00,,,0.06,Wunderground v.1.15,2013-05-23 22:54:00,
2013-05-23 18:59:00,75.9,68.5,29.77,WSW,246,2.0,9.0,78,0.00,,,0.06,Wunderground v.1.15,2013-05-23 22:59:00,
2013-05-23 19:04:00,75.9,68.5,29.78,SSW,198,2.0,5.0,78,0.00,,,0.06,Wunderground v.1.15,2013-05-23 23:04:00,
2013-05-23 19:09:00,75.7,68.4,29.78,SSW,200,3.0,6.0,78,0.00,,,0.06,Wunderground v.1.15,2013-05-23 23:09:00,
2013-05-23 19:14:00,75.6,68.3,29.78,SW,235,3.0,9.0,78,0.00,,,0.06,Wunderground v.1.15,2013-05-23 23:14:00,
2013-05-23 19:19:00,75.4,68.4,29.78,SW,222,6.0,9.0,79,0.00,,,0.06,Wunderground v.1.15,2013-05-23 23:19:00,
2013-05-23 19:24:00,75.2,68.2,29.78,SSW,198,4.0,10.0,79,0.00,,,0.06,Wunderground v.1.15,2013-05-23 23:24:00,
2013-05-23 19:29:00,74.9,68.3,29.78,WSW,248,8.0,11.0,80,0.00,,,0.06,Wunderground v.1.15,2013-05-23 23:29:00,
2013-05-23 19:34:00,74.6,68.4,29.78,SW,215,3.0,12.0,81,0.00,,,0.06,Wunderground v.1.15,2013-05-23 23:34:00,
2013-05-23 19:39:00,74.5,68.3,29.78,SW,233,5.0,12.0,81,0.00,,,0.06,Wunderground v.1.15,2013-05-23 23:39:00,
2013-05-23 19:44:00,74.3,68.1,29.79,SW,232,6.0,7.0,81,0.00,,,0.06,Wunderground v.1.15,2013-05-23 23:44:00,
2013-05-23 19:49:00,74.2,68.3,29.79,WSW,242,1.0,7.0,82,0.00,,,0.06,Wunderground v.1.15,2013-05-23 23:49:00,
2013-05-23 19:54:00,74.2,68.3,29.79,South,169,2.0,5.0,82,0.00,,,0.06,Wunderground v.1.15,2013-05-23 23:54:00,
2013-05-23 19:59:00,74.1,68.3,29.78,SSW,194,3.0,5.0,82,0.00,,,0.06,Wunderground v.1.15,2013-05-23 23:59:00,
2013-05-23 20:04:00,74.0,68.2,29.78,SSW,204,1.0,4.0,82,0.00,,,0.06,Wunderground v.1.15,2013-05-24 00:04:00,
2013-05-23 20:09:00,73.9,68.1,29.78,SW,225,4.0,6.0,82,0.00,,,0.06,Wunderground v.1.15,2013-05-24 00:09:00,
2013-05-23 20:14:00,73.7,67.9,29.78,SSE,162,3.0,7.0,82,0.00,,,0.06,Wunderground v.1.15,2013-05-24 00:14:00,
2013-05-23 20:19:00,73.7,67.9,29.78,WSW,242,2.0,7.0,82,0.00,,,0.06,Wunderground v.1.15,2013-05-24 00:19:00,
2013-05-23 20:24:00,73.6,67.8,29.77,SSW,205,0.0,6.0,82,0.00,,,0.06,Wunderground v.1.15,2013-05-24 00:24:00,
2013-05-23 20:29:00,73.4,67.9,29.77,SW,221,1.0,6.0,83,0.00,,,0.06,Wunderground v.1.15,2013-05-24 00:29:00,
2013-05-23 20:34:00,73.2,67.7,29.78,SW,231,2.0,5.0,83,0.00,,,0.06,Wunderground v.1.15,2013-05-24 00:34:00,
2013-05-23 20:39:00,73.2,67.7,29.78,SSW,199,2.0,5.0,83,0.00,,,0.06,Wunderground v.1.15,2013-05-24 00:39:00,
2013-05-23 20:44:00,73.1,67.6,29.78,SW,227,3.0,6.0,83,0.00,,,0.06,Wunderground v.1.15,2013-05-24 00:44:00,
2013-05-23 20:49:00,73.1,67.6,29.78,SSW,201,6.0,8.0,83,0.00,,,0.06,Wunderground v.1.15,2013-05-24 00:49:00,
2013-05-23 20:54:00,73.1,68.0,29.78,SSW,208,5.0,12.0,84,0.00,,,0.06,Wunderground v.1.15,2013-05-24 00:54:00,
2013-05-23 20:59:00,73.0,67.9,29.78,NW,314,2.0,12.0,84,0.00,,,0.06,Wunderground v.1.15,2013-05-24 00:59:00,
2013-05-23 21:04:00,73.0,68.2,29.79,SSW,204,5.0,6.0,85,0.00,,,0.06,Wunderground v.1.15,2013-05-24 01:04:00,
2013-05-23 21:09:00,73.0,68.2,29.79,ESE,113,1.0,11.0,85,0.00,,,0.06,Wunderground v.1.15,2013-05-24 01:09:00,
2013-05-23 21:15:00,73.0,68.2,29.79,WSW,255,5.0,9.0,85,0.00,,,0.06,Wunderground v.1.15,2013-05-24 01:15:00,
2013-05-23 21:20:00,72.9,68.1,29.79,South,176,4.0,4.0,85,0.00,,,0.06,Wunderground v.1.15,2013-05-24 01:20:00,
2013-05-23 21:25:00,72.9,68.1,29.79,SW,233,2.0,9.0,85,0.00,,,0.06,Wunderground v.1.15,2013-05-24 01:25:00,
2013-05-23 21:30:00,72.8,68.0,29.79,SSW,209,3.0,4.0,85,0.00,,,0.06,Wunderground v.1.15,2013-05-24 01:30:00,
2013-05-23 21:35:00,72.8,68.0,29.79,West,262,4.0,9.0,85,0.00,,,0.06,Wunderground v.1.15,2013-05-24 01:35:00,
2013-05-23 21:40:00,72.7,67.6,29.79,SW,232,8.0,8.0,84,0.00,,,0.06,Wunderground v.1.15,2013-05-24 01:40:00,
2013-05-23 21:45:00,72.6,67.5,29.79,WSW,242,4.0,9.0,84,0.00,,,0.06,Wunderground v.1.15,2013-05-24 01:45:00,
2013-05-23 21:50:00,72.6,67.5,29.79,West,269,1.0,4.0,84,0.00,,,0.06,Wunderground v.1.15,2013-05-24 01:50:00,
2013-05-23 21:55:00,72.4,67.3,29.79,SSW,199,1.0,6.0,84,0.00,,,0.06,Wunderground v.1.15,2013-05-24 01:55:00,
2013-05-23 22:00:00,72.3,67.5,29.79,SSE,153,5.0,7.0,85,0.00,,,0.06,Wunderground v.1.15,2013-05-24 02:00:00,
2013-05-23 22:05:00,72.2,67.4,29.79,WSW,249,2.0,7.0,85,0.00,,,0.06,Wunderground v.1.15,2013-05-24 02:05:00,
2013-05-23 22:10:00,72.1,67.3,29.79,SSW,197,4.0,7.0,85,0.00,,,0.06,Wunderground v.1.15,2013-05-24 02:10:00,
2013-05-23 22:15:00,72.0,67.2,29.79,SSW,193,4.0,7.0,85,0.00,,,0.06,Wunderground v.1.15,2013-05-24 02:15:00,
2013-05-23 22:20:00,71.8,67.0,29.79,WSW,257,3.0,3.0,85,0.00,,,0.06,Wunderground v.1.15,2013-05-24 02:20:00,
2013-05-23 22:25:00,71.7,67.3,29.79,SW,232,1.0,4.0,86,0.00,,,0.06,Wunderground v.1.15,2013-05-24 02:25:00,
2013-05-23 22:30:00,71.5,67.1,29.79,SW,235,0.0,2.0,86,0.00,,,0.06,Wunderground v.1.15,2013-05-24 02:30:00,
2013-05-23 22:35:00,71.3,66.9,29.79,SW,233,1.0,3.0,86,0.00,,,0.06,Wunderground v.1.15,2013-05-24 02:35:00,
2013-05-23 22:40:00,71.2,67.1,29.80,WSW,255,1.0,1.0,87,0.00,,,0.06,Wunderground v.1.15,2013-05-24 02:40:00,
2013-05-23 22:45:00,71.1,67.0,29.80,NW,326,0.0,2.0,87,0.00,,,0.06,Wunderground v.1.15,2013-05-24 02:45:00,
2013-05-23 22:50:00,71.1,67.0,29.81,WSW,251,1.0,1.0,87,0.00,,,0.06,Wunderground v.1.15,2013-05-24 02:50:00,
2013-05-23 22:55:00,71.1,67.0,29.81,NNW,336,1.0,2.0,87,0.00,,,0.06,Wunderground v.1.15,2013-05-24 02:55:00,
2013-05-23 23:00:00,70.8,65.4,29.83,NNE,27,10.0,10.0,83,0.00,,,0.06,Wunderground v.1.15,2013-05-24 03:00:00,
2013-05-23 23:05:00,69.3,61.0,29.84,NW,314,14.0,15.0,75,0.00,,,0.06,Wunderground v.1.15,2013-05-24 03:05:00,
2013-05-23 23:10:00,67.9,60.4,29.84,North,6,12.0,23.0,77,0.00,,,0.06,Wunderground v.1.15,2013-05-24 03:10:00,
2013-05-23 23:15:00,66.2,60.5,29.84,NNW,332,5.0,23.0,82,1.02,,,0.10,Wunderground v.1.15,2013-05-24 03:15:00,
2013-05-23 23:20:00,64.5,60.9,29.84,WNW,293,3.0,7.0,88,0.33,,,0.15,Wunderground v.1.15,2013-05-24 03:20:00,
2013-05-23 23:25:00,63.8,60.8,29.84,NNW,347,2.0,7.0,90,0.09,,,0.15,Wunderground v.1.15,2013-05-24 03:25:00,
2013-05-23 23:30:00,63.3,60.3,29.83,NNE,27,4.0,4.0,90,0.07,,,0.16,Wunderground v.1.15,2013-05-24 03:30:00,
2013-05-23 23:35:00,63.2,60.5,29.83,North,6,4.0,7.0,91,0.11,,,0.17,Wunderground v.1.15,2013-05-24 03:35:00,
2013-05-23 23:41:00,63.0,60.3,29.82,NE,41,6.0,6.0,91,0.08,,,0.17,Wunderground v.1.15,2013-05-24 03:41:00,
2013-05-23 23:45:00,62.7,60.0,29.81,NE,36,6.0,9.0,91,0.05,,,0.17,Wunderground v.1.15,2013-05-24 03:45:00,
2013-05-23 23:50:00,62.6,60.2,29.81,NE,47,2.0,5.0,92,0.00,,,0.17,Wunderground v.1.15,2013-05-24 03:50:00,
2013-05-23 23:55:00,62.4,60.0,29.80,NE,46,2.0,6.0,92,0.00,,,0.17,Wunderground v.1.15,2013-05-24 03:55:00,